Weather in Yuzhno-Morskoy

Russia / Primorsky Krai     42°51′35″N   132°41′27″E
temp.,
°C
wind,
m/s
gust,
m/s
humid.,
%
clouds,
%
prec.,
mm/h
press.,
hPa
HPBL,
m
28 january, thu
thu2801:00−8ne336033 0.0 1022213
04:00−9nne336167 0.0 1021166
07:00−8ne4458100 0.1 1018242
10:00−7e7972100 0.1 1016671
13:00−4ese13169299 0.8 10101033
16:00−3e141893100 5.9 10041085
19:00−2ene142092100 6.0 10001326
22:00−4nne111795100 24.6 997924
29 january, fri
fri2901:00−8n121783100 9.6 996910
04:00−11nnw172484100 10.1 9971257
07:00−13nnw152289100 0.5 1002936
10:00−15nnw152090100 0.8 1007958
13:00−14nw151986100 0.0 10101150
16:00−14nnw141985100 0.0 10121047
19:00−15nw14188928 0.0 10161055
22:00−17nnw12169116 0.0 1017915
30 january, sat
sat3001:00−18nnw1114890 0.0 1020654
04:00−19nnw79910 0.0 1021394
07:00−20nnw56930 0.0 1022276
10:00−19n55900 0.0 1023222
13:00−13n45641 0.0 1022323
16:00−9nw67621 0.0 1021584
19:00−12nw79730 0.0 1024468
22:00−14nnw78730 0.0 1026356
31 january, sun
sun3101:00−16nnw67790 0.0 1027315
04:00−17nnw67820 0.0 1028312
07:00−18nnw56850 0.0 1029289
10:00−18n55860 0.0 1030264
13:00−12n46630 0.0 1029424
16:00−8wnw35451 0.0 1027651
19:00−8wnw445975 0.0 1028459
22:00−10nne227388 0.0 1027256
1 february, mon
mon101:00−11ne3381100 0.0 1025201
04:00−9ene4592100 0.1 1022265
07:00−7e6892100 0.1 1017380
10:00−6ene6791100 0.4 1014350
13:00−3e4588100 0.2 1010308
16:00−2se449399 0.3 1007261
19:00−2wnw788888 0.2 1007341
22:00−7nw10137876 0.2 1009563